sat.trackr.live / text

‹ back to catalog

STARLINK-35350

NORAD 66187 · 2025-243L

PAYLOAD ACTIVE UNKNOWN

§ Identity

Operator
Country
US
Launch date
2025-10-26
Launch site
AFETR
Launch vehicle
Mass (kg)
RCS (m²)

Purposes: comms

External: N2YO · Heavens-Above · Gunter

§ Orbital elements

Epoch: 2026-05-24T16:11:17.439360Z

Period
94.11 min
Inclination
53.1564°
Eccentricity
0.0000931
Mean motion
15.30202850 rev/d
Perigee alt
474.6 km
Apogee alt
475.8 km
Semi-major
6,853.3 km
B*
3.1150e-4
RAAN
252.5817°
Arg perigee
107.6517°
Mean anomaly
252.4585°
Rev number
3,228

§ Raw data

STARLINK-353501 66187U 25243L   26144.67450740  .00008879  00000+0  31150-3 0  99982 66187  53.1564 252.5817 0000931 107.6517 252.4585 15.30202850 32286

JSON: /api/v1/satellites/66187 · /tle

For live sub-satellite position, see the globe view (requires WebGL).

§ Visibility from observer

Set your observer location to see the next 7 days of passes ≥ 10°. The values pass through the URL so the page stays shareable.

No JS? Fill the form by hand. The geolocation button needs JavaScript.